Hot Springs, VA

11:26 PM EDT on July 20, 2017 (GMT -0400)
Ingalls

Weather History for KHSP - April, 2013

Change the Weather History Date:

Thursday, April 25, 2013

  Actual Average Record
Temperature  
Mean Temperature 42 °F -  
Max Temperature 53 °F 57 °F 78 °F (2007)
Min Temperature 30 °F 40 °F 28 °F (2005)
Degree Days  
Heating Degree Days 24    
Moisture  
Dew Point 25 °F    
Average Humidity 58    
Maximum Humidity 93    
Minimum Humidity 24    
Precipitation  
Precipitation 0.00 in - - ()
Sea Level Pressure  
Sea Level Pressure 30.23 in    
Wind  
Wind Speed 14 mph (WNW)    
Max Wind Speed 24 mph    
Max Gust Speed 33 mph    
Visibility 10 miles    
Events      
Averages and records for this station are not official NWS values.
T = Trace of Precipitation, MM = Missing Value Source: NWS Daily Summary

Daily Weather History Graph

Daily Weather History Graph

Search for Another Location

Airport or City:

Trip Planner

Search our weather history database for the weather conditions in past years. The results will help you decide how hot, cold, wet, or windy it might be!

Date:

Astronomy

Apr. 25, 2013 Rise Set
Actual Time 6:30 AM EDT 8:04 PM EDT
Civil Twilight 6:02 AM EDT 8:32 PM EDT
Nautical Twilight 5:28 AM EDT 9:06 PM EDT
Astronomical Twilight 4:53 AM EDT 9:41 PM EDT
Moon 8:15 PM EDT (4/25) 6:12 AM EDT (4/25)
Length of Visible Light 14h 30m
Length of Day
13h 34m
Full, 100% of the Moon is Illuminated
Apr 25
Full
Apr 25
Full
May 2
Last Quarter
May 9
New
May 18
First Quarter

Hourly Weather History & Observations

Time (EDT) Temp. Windchill Dew Point Humidity Pressure Visibility Wind Dir Wind Speed Gust Speed Precip Events Conditions
12:15 AM 39.2 °F 28.5 °F 35.6 °F 87% 30.09 in 10.0 mi WNW 24.2 mph 31.1 mph N/A   Mostly Cloudy
12:35 AM 39.2 °F 28.5 °F 35.6 °F 87% 30.10 in 10.0 mi WNW 24.2 mph 33.4 mph N/A   Mostly Cloudy
12:55 AM 37.4 °F 26.4 °F 33.8 °F 87% 30.10 in 10.0 mi West 23.0 mph 32.2 mph N/A   Overcast
1:15 AM 37.4 °F 27.5 °F 33.8 °F 87% 30.10 in 10.0 mi WNW 18.4 mph 27.6 mph N/A   Overcast
1:35 AM 35.6 °F 26.2 °F 33.8 °F 93% 30.10 in 10.0 mi WNW 15.0 mph 28.8 mph N/A   Overcast
1:55 AM 35.6 °F 24.2 °F 32.0 °F 87% 30.09 in 10.0 mi WNW 21.9 mph 28.8 mph N/A   Overcast
2:15 AM 35.6 °F 24.0 °F 30.2 °F 81% 30.10 in 10.0 mi WNW 23.0 mph 33.4 mph N/A   Overcast
2:35 AM 33.8 °F 21.3 °F 30.2 °F 87% 30.10 in 10.0 mi WNW 24.2 mph 31.1 mph N/A   Overcast
2:55 AM 33.8 °F 23.2 °F 30.2 °F 87% 30.10 in 10.0 mi WNW 17.3 mph 28.8 mph N/A   Overcast
3:15 AM 33.8 °F 22.8 °F 30.2 °F 87% 30.10 in 10.0 mi WNW 18.4 mph 25.3 mph N/A   Overcast
3:35 AM 33.8 °F 22.8 °F 28.4 °F 81% 30.10 in 10.0 mi WNW 18.4 mph 32.2 mph N/A   Overcast
3:55 AM 33.8 °F 22.5 °F 28.4 °F 81% 30.10 in 10.0 mi WNW 19.6 mph 31.1 mph N/A   Mostly Cloudy
4:15 AM 32.0 °F 21.6 °F 30.2 °F 93% 30.11 in 10.0 mi NW 15.0 mph 24.2 mph N/A   Overcast
4:35 AM 30.2 °F 17.4 °F 28.4 °F 93% 30.12 in 10.0 mi NW 20.7 mph 31.1 mph N/A   Overcast
4:55 AM 30.2 °F 18.9 °F 26.6 °F 86% 30.14 in 10.0 mi NW 16.1 mph 24.2 mph N/A   Overcast
5:15 AM 30.2 °F 18.1 °F 26.6 °F 86% 30.14 in 10.0 mi NW 18.4 mph 25.3 mph N/A   Overcast
5:35 AM 30.2 °F 19.3 °F 26.6 °F 86% 30.15 in 10.0 mi WNW 15.0 mph 24.2 mph N/A   Mostly Cloudy
5:55 AM 30.2 °F 20.2 °F 26.6 °F 86% 30.16 in 10.0 mi NW 12.7 mph 17.3 mph N/A   Overcast
6:15 AM 30.2 °F 21.9 °F 26.6 °F 86% 30.16 in 10.0 mi NW 9.2 mph - N/A   Overcast
6:35 AM 30.2 °F 22.6 °F 26.6 °F 86% 30.17 in 10.0 mi NW 8.1 mph - N/A   Overcast
6:55 AM 30.2 °F - 26.6 °F 86% 30.19 in 10.0 mi Calm Calm - N/A   Overcast
7:15 AM 30.2 °F 24.3 °F 26.6 °F 86% 30.20 in 10.0 mi NNW 5.8 mph - N/A   Overcast
7:35 AM 30.2 °F 23.4 °F 26.6 °F 86% 30.20 in 10.0 mi NNW 6.9 mph - N/A   Scattered Clouds
7:55 AM 32.0 °F 26.4 °F 28.4 °F 87% 30.22 in 10.0 mi NNW 5.8 mph - N/A   Mostly Cloudy
8:15 AM 32.0 °F 27.5 °F 28.4 °F 87% 30.23 in 10.0 mi North 4.6 mph - N/A   Mostly Cloudy
8:35 AM 32.0 °F 27.5 °F 26.6 °F 80% 30.24 in 10.0 mi WNW 4.6 mph - N/A   Scattered Clouds
8:55 AM 33.8 °F 29.6 °F 26.6 °F 75% 30.25 in 10.0 mi WNW 4.6 mph - N/A   Scattered Clouds
9:15 AM 33.8 °F 29.6 °F 28.4 °F 81% 30.26 in 10.0 mi WNW 4.6 mph - N/A   Clear
9:35 AM 33.8 °F - 26.6 °F 75% 30.26 in 10.0 mi Calm Calm - N/A   Clear
9:55 AM 35.6 °F 31.7 °F 28.4 °F 75% 30.27 in 10.0 mi West 4.6 mph - N/A   Scattered Clouds
10:15 AM 37.4 °F - 28.4 °F 70% 30.26 in 10.0 mi Calm Calm - N/A   Scattered Clouds
10:35 AM 37.4 °F - 28.4 °F 70% 30.27 in 10.0 mi Calm Calm - N/A   Scattered Clouds
10:55 AM 39.2 °F 35.9 °F 28.4 °F 65% 30.28 in 10.0 mi WNW 4.6 mph - N/A   Scattered Clouds
11:15 AM 39.2 °F 37.0 °F 26.6 °F 61% 30.28 in 10.0 mi NW 3.5 mph - N/A   Clear
11:35 AM 42.8 °F 38.0 °F 26.6 °F 53% 30.28 in 10.0 mi West 8.1 mph - N/A   Clear
11:55 AM 42.8 °F 38.6 °F 26.6 °F 53% 30.28 in 10.0 mi West 6.9 mph - N/A   Clear
12:15 PM 42.8 °F 37.5 °F 28.4 °F 57% 30.28 in 10.0 mi West 9.2 mph - N/A   Clear
12:35 PM 44.6 °F 40.2 °F 28.4 °F 53% 30.28 in 10.0 mi West 8.1 mph - N/A   Clear
12:55 PM 44.6 °F 39.2 °F 26.6 °F 49% 30.28 in 10.0 mi West 10.4 mph - N/A   Clear
1:15 PM 46.4 °F 41.1 °F 26.6 °F 46% 30.29 in 10.0 mi West 11.5 mph - N/A   Clear
1:35 PM 46.4 °F 41.9 °F 26.6 °F 46% 30.28 in 10.0 mi WNW 9.2 mph - N/A   Clear
1:55 PM 48.2 °F - 24.8 °F 40% 30.28 in 10.0 mi NW 5.8 mph - N/A   Clear
2:15 PM 50.0 °F - 24.8 °F 37% 30.27 in 10.0 mi WSW 9.2 mph - N/A   Clear
2:35 PM 50.0 °F - 24.8 °F 37% 30.27 in 10.0 mi SW 4.6 mph - N/A   Clear
2:55 PM 51.8 °F - 24.8 °F 35% 30.27 in 10.0 mi SW 6.9 mph - N/A   Clear
3:15 PM 51.8 °F - 24.8 °F 35% 30.27 in 10.0 mi WSW 5.8 mph 17.3 mph N/A   Clear
3:35 PM 53.6 °F - 24.8 °F 33% 30.26 in 10.0 mi WSW 6.9 mph 17.3 mph N/A   Clear
3:55 PM 53.6 °F - 24.8 °F 33% 30.26 in 10.0 mi West 8.1 mph 18.4 mph N/A   Clear
4:15 PM 53.6 °F - 21.2 °F 28% 30.25 in 10.0 mi West 8.1 mph - N/A   Clear
4:35 PM 53.6 °F - 17.6 °F 24% 30.24 in 10.0 mi WNW 9.2 mph 18.4 mph N/A   Clear
4:55 PM 51.8 °F - 17.6 °F 26% 30.24 in 10.0 mi West 13.8 mph 24.2 mph N/A   Clear
5:15 PM 53.6 °F - 19.4 °F 26% 30.24 in 10.0 mi West 15.0 mph 19.6 mph N/A   Clear
5:35 PM 51.8 °F - 21.2 °F 30% 30.25 in 10.0 mi West 12.7 mph 17.3 mph N/A   Clear
5:55 PM 51.8 °F - 21.2 °F 30% 30.25 in 10.0 mi West 9.2 mph 18.4 mph N/A   Clear
6:15 PM 51.8 °F - 21.2 °F 30% 30.26 in 10.0 mi West 8.1 mph - N/A   Clear
6:35 PM 51.8 °F - 21.2 °F 30% 30.26 in 10.0 mi West 13.8 mph 20.7 mph N/A   Clear
6:55 PM 51.8 °F - 17.6 °F 26% 30.25 in 10.0 mi WNW 12.7 mph 16.1 mph N/A   Clear
7:15 PM 51.8 °F - 15.8 °F 24% 30.26 in 10.0 mi West 16.1 mph 20.7 mph N/A   Clear
7:35 PM 50.0 °F - 15.8 °F 26% 30.27 in 10.0 mi West 15.0 mph - N/A   Clear
7:55 PM 48.2 °F - 15.8 °F 27% 30.27 in 10.0 mi West 15.0 mph 23.0 mph N/A   Clear
8:15 PM 48.2 °F - 15.8 °F 27% 30.28 in 10.0 mi WNW 11.5 mph 16.1 mph N/A   Clear
8:35 PM 46.4 °F 41.1 °F 17.6 °F 32% 30.29 in 10.0 mi NW 11.5 mph 18.4 mph N/A   Clear
8:55 PM 46.4 °F 41.1 °F 17.6 °F 32% 30.29 in 10.0 mi WNW 11.5 mph 18.4 mph N/A   Clear
9:15 PM 46.4 °F 41.5 °F 19.4 °F 34% 30.31 in 10.0 mi WNW 10.4 mph 17.3 mph N/A   Clear
9:35 PM 44.6 °F 39.2 °F 19.4 °F 37% 30.32 in 10.0 mi WNW 10.4 mph 17.3 mph N/A   Clear
9:55 PM 44.6 °F 38.1 °F 21.2 °F 39% 30.32 in 10.0 mi WNW 13.8 mph 20.7 mph N/A   Clear
10:15 PM 44.6 °F 39.2 °F 21.2 °F 39% 30.33 in 10.0 mi WNW 10.4 mph - N/A   Clear
10:35 PM 44.6 °F 38.4 °F 21.2 °F 39% 30.33 in 10.0 mi WNW 12.7 mph 20.7 mph N/A   Clear
10:55 PM 42.8 °F 37.0 °F 21.2 °F 42% 30.34 in 10.0 mi WNW 10.4 mph 18.4 mph N/A   Clear
11:15 PM 42.8 °F 37.5 °F 21.2 °F 42% 30.34 in 10.0 mi NW 9.2 mph - N/A   Clear
11:35 PM 42.8 °F 38.0 °F 23.0 °F 46% 30.34 in 10.0 mi NW 8.1 mph - N/A   Clear
11:55 PM 42.8 °F 38.6 °F 23.0 °F 46% 30.34 in 10.0 mi WNW 6.9 mph - N/A   Clear